Le nostre stazioni meteo in Italia

Pubblicità
Il mio iltempo24.it
Ferrara, Italia (16138): Temperatura & dewpoint: 15.09.2018 05:00:00 - 21.09.2018 05:00:00 (CEST)Ferrara, Italia (16138): velocità del vento: 15.09.2018 05:00:00 - 21.09.2018 05:00:00 (CEST)Ferrara, Italia (16138): direzione del vento: 15.09.2018 05:00:00 - 21.09.2018 05:00:00 (CEST)Ferrara, Italia (16138): reduced air pressure: 15.09.2018 05:00:00 - 21.09.2018 05:00:00 (CEST)Ferrara, Italia (16138): visibility: 15.09.2018 05:00:00 - 21.09.2018 05:00:00 (CEST)
Data & Tempo tt [°C] td [°C] ff [km/h] ff [kn] dd ppp [hPa] vv [km]
21.09.2018 05:00:00 - - - - - - -
21.09.2018 04:00:00 - - - - - - -
21.09.2018 03:00:00 - - - - - - -
21.09.2018 02:00:00 - - - - - - -
21.09.2018 01:00:00 - - - - - - -
21.09.2018 00:00:00 - - - - - - -
20.09.2018 23:00:00 - - - - - - -
20.09.2018 22:00:00 - - - - - - -
20.09.2018 21:00:00 - - - - - - -
20.09.2018 20:00:00 25,4 16,5 0 0 N 1017,0 12
20.09.2018 19:00:00 27,0 16,0 - - - - 10
20.09.2018 18:00:00 29,0 16,0 - - - - 10
20.09.2018 17:00:00 29,2 16,7 0 0 N 1017,4 10
20.09.2018 16:00:00 30,0 17,0 8 4 ENE - 10
20.09.2018 15:00:00 30,0 17,0 5 3 ENE - 10
20.09.2018 14:00:00 29,2 18,3 4 2 NNE 1018,8 8
20.09.2018 13:00:00 28,0 20,0 5 3 N - 6
20.09.2018 12:00:00 26,0 20,0 - - - - 4,0
20.09.2018 11:00:00 23,8 20,1 0 0 N 1019,9 3,5
20.09.2018 10:00:00 20,0 19,0 - - - - 1,5
20.09.2018 09:00:00 19,0 18,0 - - - - 0,7
20.09.2018 08:00:00 17,8 16,7 0 0 N 1019,5 0,4
20.09.2018 07:00:00 - - - - - - -
20.09.2018 06:00:00 - - - - - - -
20.09.2018 05:00:00 - - - - - - -
20.09.2018 04:00:00 - - - - - - -
20.09.2018 03:00:00 - - - - - - -
20.09.2018 02:00:00 - - - - - - -
20.09.2018 01:00:00 - - - - - - -
20.09.2018 00:00:00 - - - - - - -
19.09.2018 23:00:00 - - - - - - -
19.09.2018 22:00:00 - - - - - - -
19.09.2018 21:00:00 - - - - - - -
19.09.2018 20:00:00 25,4 18,8 0 0 N 1018,7 8
19.09.2018 19:00:00 27,0 19,0 - - - - 8
19.09.2018 18:00:00 28,0 19,0 - - - - 8
19.09.2018 17:00:00 28,4 18,8 0 0 N 1018,7 8
19.09.2018 16:00:00 28,0 19,0 4 2 NNE - 8
19.09.2018 15:00:00 29,0 19,0 4 2 SSO - 6
19.09.2018 14:00:00 28,4 21,2 4 2 NNO 1019,6 6
19.09.2018 13:00:00 27,0 21,0 4 2 ONO - 5
19.09.2018 12:00:00 25,0 20,0 4 2 OSO - 5
19.09.2018 11:00:00 23,6 20,0 0 0 N 1020,3 5
19.09.2018 10:00:00 21,0 19,0 - - - - 4,0
19.09.2018 09:00:00 19,0 18,0 - - - - 4,0
19.09.2018 08:00:00 17,4 16,2 0 0 N 1019,4 5
19.09.2018 07:00:00 - - - - - - -
19.09.2018 06:00:00 - - - - - - -
19.09.2018 05:00:00 - - - - - - -
19.09.2018 04:00:00 - - - - - - -
19.09.2018 03:00:00 - - - - - - -
19.09.2018 02:00:00 - - - - - - -
19.09.2018 01:00:00 - - - - - - -
19.09.2018 00:00:00 - - - - - - -
18.09.2018 23:00:00 - - - - - - -
18.09.2018 22:00:00 - - - - - - -
18.09.2018 21:00:00 - - - - - - -
18.09.2018 20:00:00 25,0 20,3 0 0 N 1018,4 10
18.09.2018 19:00:00 26,0 20,0 - - - - 10
18.09.2018 18:00:00 27,0 20,0 - - - - 10
18.09.2018 17:00:00 28,2 19,2 0 0 N 1018,1 10
18.09.2018 16:00:00 28,0 20,0 9 5 SSE - 10
18.09.2018 15:00:00 28,0 20,0 5 3 O - 8
18.09.2018 14:00:00 26,0 20,3 0 0 N 1019,7 8
18.09.2018 13:00:00 25,0 21,0 - - - - 6
18.09.2018 12:00:00 24,0 21,0 - - - - 2,0
18.09.2018 11:00:00 23,0 20,9 0 0 N 1020,4 1,8
18.09.2018 10:00:00 21,0 20,0 5 3 O - 0,9
18.09.2018 09:00:00 20,0 19,0 0 0 N - 0,9
18.09.2018 08:00:00 19,8 18,6 0 0 N 1020,0 1,5
18.09.2018 07:00:00 - - - - - - -
18.09.2018 06:00:00 - - - - - - -
18.09.2018 05:00:00 - - - - - - -
18.09.2018 04:00:00 - - - - - - -
18.09.2018 03:00:00 - - - - - - -
18.09.2018 02:00:00 - - - - - - -
18.09.2018 01:00:00 - - - - - - -
18.09.2018 00:00:00 - - - - - - -
17.09.2018 23:00:00 - - - - - - -
17.09.2018 22:00:00 - - - - - - -
17.09.2018 21:00:00 - - - - - - -
17.09.2018 20:00:00 20,8 19,5 0 0 N 1020,2 10
17.09.2018 19:00:00 21,0 20,0 - - - - 10
17.09.2018 18:00:00 22,0 19,0 - - - - 8
17.09.2018 17:00:00 21,8 17,4 0 0 N 1020,2 10
17.09.2018 16:00:00 29,0 20,0 - - - - 10
17.09.2018 15:00:00 30,0 21,0 - - - - 8
17.09.2018 14:00:00 28,4 20,4 0 0 N 1021,2 7
17.09.2018 13:00:00 29,0 22,0 - - - - 6
17.09.2018 12:00:00 27,0 21,0 - - - - 5
17.09.2018 11:00:00 24,4 20,7 0 0 N 1021,2 4,0
17.09.2018 10:00:00 22,0 19,0 - - - - 3,0
17.09.2018 09:00:00 21,0 19,0 2 1 NNE - 3,0
17.09.2018 08:00:00 19,2 17,7 0 0 N 1020,7 5
17.09.2018 07:00:00 - - - - - - -
17.09.2018 06:00:00 - - - - - - -
17.09.2018 05:00:00 - - - - - - -
17.09.2018 04:00:00 - - - - - - -
17.09.2018 03:00:00 - - - - - - -
17.09.2018 02:00:00 - - - - - - -
17.09.2018 01:00:00 - - - - - - -
17.09.2018 00:00:00 - - - - - - -
16.09.2018 23:00:00 - - - - - - -
16.09.2018 22:00:00 - - - - - - -
16.09.2018 21:00:00 - - - - - - -
16.09.2018 20:00:00 24,8 17,8 0 0 N 1020,3 10
16.09.2018 19:00:00 26,0 18,0 - - - - 10
16.09.2018 18:00:00 28,0 20,0 - - - - 10
16.09.2018 17:00:00 29,0 19,0 0 0 N 1020,3 10
16.09.2018 16:00:00 29,0 19,0 - - - - 10
16.09.2018 15:00:00 29,0 19,0 - - - - 10
16.09.2018 14:00:00 29,0 19,9 8 4 S 1021,9 10
16.09.2018 13:00:00 28,0 20,0 - - - - 10
16.09.2018 12:00:00 27,0 20,0 - - - - 7
16.09.2018 11:00:00 25,4 20,4 0 0 N 1022,2 6
16.09.2018 10:00:00 22,0 20,0 - - - - 2,5
16.09.2018 09:00:00 19,0 18,0 2 1 NNE - 0,8
16.09.2018 08:00:00 18,2 17,0 0 0 N 1021,8 0,3
16.09.2018 07:00:00 - - - - - - -
16.09.2018 06:00:00 - - - - - - -
16.09.2018 05:00:00 - - - - - - -
16.09.2018 04:00:00 - - - - - - -
16.09.2018 03:00:00 - - - - - - -
16.09.2018 02:00:00 - - - - - - -
16.09.2018 01:00:00 - - - - - - -
16.09.2018 00:00:00 - - - - - - -
15.09.2018 23:00:00 - - - - - - -
15.09.2018 22:00:00 - - - - - - -
15.09.2018 21:00:00 - - - - - - -
15.09.2018 20:00:00 24,0 17,7 4 2 ENE 1019,4 10
15.09.2018 19:00:00 26,0 18,0 - - - - 10
15.09.2018 18:00:00 27,0 18,0 - - - - 10
15.09.2018 17:00:00 26,6 18,2 0 0 N 1019,4 10
15.09.2018 16:00:00 26,0 18,0 - - - - 10
15.09.2018 15:00:00 26,0 19,0 - - - - 10
15.09.2018 14:00:00 25,0 19,4 0 0 N 1020,2 10
15.09.2018 13:00:00 22,0 19,0 2 1 E - 10
15.09.2018 12:00:00 21,0 19,0 0 0 N - 10
15.09.2018 11:00:00 21,0 18,0 8 4 NNO 1020,1 10
15.09.2018 10:00:00 21,0 18,0 4 2 NE - 10
15.09.2018 09:00:00 20,0 18,0 8 4 NE - 10
15.09.2018 08:00:00 20,8 18,4 9 5 NNE 1017,9 10
15.09.2018 07:00:00 - - - - - - -
15.09.2018 06:00:00 - - - - - - -
15.09.2018 05:00:00 - - - - - - -

tt = Temperatura
td = dewpoint
ff = velocità del vento
dd = direzione del vento
ppp = reduced air pressure
vv = visibility

Stazioni seguenti

WeatherPro
AMSI
MeteoEarth